Location: Newark
(45.4422°N, 16.2769°E)
Time: 05:55:38
(UTC+00:00)

Courier 1B Rocket - Pass Details

Date: 12 December 2019
Orbit: 920 x 1202 km, 28.2° (Epoch: 20 January)

Event Time Altitude Azimuth Distance (km) Brightness Sun altitude
Rises 04:21:46 0° 217° (SW) 3,885 7.9 -20.7°
Reaches altitude 10° 04:26:20 10° 192° (SSW) 2,860 7.5 -19.9°
Maximum altitude 04:29:18 13° 166° (SSE) 2,590 7.5 -19.4°
Drops below altitude 10° 04:32:13 10° 140° (SE) 2,772 8.1 -18.9°
Sets 04:36:28 0° 114° (ESE) 3,663 9.6 -18.2°
